| time (UTC) | temp F | wind direction | speed MPH | gust MPH | rain 1hr in | rain 24hr in | rain mn in | humidity % | barometer mb |
| 20260901044003 | 84 | 150 | 4.0 | 9.0 | 0.00 | 0.00 | 0.00 | 68 | 1014.8 |
| 20260901043504 | 84 | 147 | 4.0 | 9.0 | 0.00 | 0.00 | 0.00 | 68 | 1014.9 |
| 20260901043025 | 84 | 147 | 4.0 | 9.0 | 0.00 | 0.00 | 0.00 | 67 | 1014.9 |
| 20260901042503 | 85 | 147 | 3.0 | 8.0 | 0.00 | 0.00 | 0.00 | 66 | 1014.8 |
| 20260901042024 | 85 | 150 | 4.0 | 9.0 | 0.00 | 0.00 | 0.00 | 66 | 1014.8 |
| 20260901041504 | 85 | 149 | 4.0 | 9.0 | 0.00 | 0.00 | 0.00 | 65 | 1014.8 |
| 20260901041004 | 85 | 144 | 3.0 | 8.0 | 0.00 | 0.00 | 0.00 | 65 | 1014.8 |
| 20260901040504 | 85 | 146 | 4.0 | 9.0 | 0.00 | 0.00 | 0.00 | 64 | 1014.8 |
| 20260901040025 | 86 | 154 | 4.0 | 10.0 | 0.00 | 0.00 | 0.00 | 63 | 1014.8 |
| 20260901035503 | 86 | 157 | 5.0 | 10.0 | 0.00 | 0.00 | 0.00 | 63 | 1014.6 |
| 20260901035003 | 86 | 157 | 6.0 | 11.0 | 0.00 | 0.00 | 0.00 | 62 | 1014.3 |
| 20260901034504 | 86 | 155 | 6.0 | 11.0 | 0.00 | 0.00 | 0.00 | 62 | 1014.4 |
| 20260901034003 | 86 | 155 | 6.0 | 12.0 | 0.00 | 0.00 | 0.00 | 61 | 1014.6 |
| 20260901033504 | 87 | 156 | 6.0 | 12.0 | 0.00 | 0.00 | 0.00 | 61 | 1014.5 |
| 20260901033003 | 87 | 154 | 7.0 | 12.0 | 0.00 | 0.00 | 0.00 | 60 | 1014.4 |
| 20260901032525 | 87 | 154 | 7.0 | 12.0 | 0.00 | 0.00 | 0.00 | 60 | 1014.5 |
| 20260901032003 | 87 | 156 | 7.0 | 12.0 | 0.00 | 0.00 | 0.00 | 59 | 1014.4 |
| 20260901031504 | 88 | 152 | 7.0 | 12.0 | 0.00 | 0.00 | 0.00 | 59 | 1014.4 |
| 20260901031004 | 88 | 148 | 7.0 | 12.0 | 0.00 | 0.00 | 0.00 | 58 | 1014.2 |
| 20260901030504 | 88 | 147 | 7.0 | 13.0 | 0.00 | 0.00 | 0.00 | 58 | 1014.1 |
| 20260901030004 | 88 | 147 | 6.0 | 13.0 | 0.00 | 0.00 | 0.00 | 58 | 1014.1 |
| 20260901025504 | 88 | 146 | 6.0 | 13.0 | 0.00 | 0.00 | 0.00 | 58 | 1014.0 |
| 20260901025025 | 88 | 145 | 6.0 | 12.0 | 0.00 | 0.00 | 0.00 | 57 | 1013.8 |
| 20260901024504 | 89 | 153 | 5.0 | 8.0 | 0.00 | 0.00 | 0.00 | 58 | 1013.7 |
| 20260901024003 | 89 | 155 | 5.0 | 8.0 | 0.00 | 0.00 | 0.00 | 58 | 1013.6 |
| 20260901023504 | 89 | 150 | 5.0 | 9.0 | 0.00 | 0.00 | 0.00 | 57 | 1013.5 |
| 20260901023004 | 89 | 150 | 5.0 | 9.0 | 0.00 | 0.00 | 0.00 | 57 | 1013.5 |
| 20260901022504 | 89 | 152 | 4.0 | 9.0 | 0.00 | 0.00 | 0.00 | 57 | 1013.4 |
| 20260901022004 | 89 | 151 | 4.0 | 6.0 | 0.00 | 0.00 | 0.00 | 57 | 1013.4 |
| 20260901021503 | 90 | 151 | 4.0 | 8.0 | 0.00 | 0.00 | 0.00 | 56 | 1013.2 |
| 20260901021025 | 90 | 151 | 5.0 | 8.0 | 0.00 | 0.00 | 0.00 | 56 | 1013.2 |
| 20260901020504 | 90 | 148 | 4.0 | 8.0 | 0.00 | 0.00 | 0.00 | 55 | 1013.2 |
| 20260901020004 | 90 | 148 | 4.0 | 8.0 | 0.00 | 0.00 | 0.00 | 55 | 1013.1 |
| 20260901015503 | 90 | 147 | 4.0 | 8.0 | 0.00 | 0.00 | 0.00 | 55 | 1013.1 |
| 20260901015004 | 91 | 142 | 5.0 | 9.0 | 0.00 | 0.00 | 0.00 | 54 | 1013.0 |
| 20260901014503 | 91 | 141 | 4.0 | 9.0 | 0.00 | 0.00 | 0.00 | 54 | 1012.9 |
| 20260901014003 | 91 | 142 | 4.0 | 9.0 | 0.00 | 0.00 | 0.00 | 54 | 1012.8 |
| 20260901013505 | 91 | 143 | 4.0 | 9.0 | 0.00 | 0.00 | 0.00 | 53 | 1012.6 |
| 20260901013025 | 91 | 142 | 4.0 | 9.0 | 0.00 | 0.00 | 0.00 | 53 | 1012.6 |
| 20260901012505 | 92 | 143 | 5.0 | 9.0 | 0.00 | 0.00 | 0.00 | 53 | 1012.6 |
| 20260901012005 | 92 | 141 | 4.0 | 9.0 | 0.00 | 0.00 | 0.00 | 53 | 1012.6 |
| 20260901011505 | 92 | 132 | 3.0 | 8.0 | 0.00 | 0.00 | 0.00 | 53 | 1012.5 |
| 20260901011005 | 92 | 133 | 4.0 | 8.0 | 0.00 | 0.00 | 0.00 | 53 | 1012.5 |
| 20260901010505 | 92 | 132 | 5.0 | 9.0 | 0.00 | 0.00 | 0.00 | 52 | 1012.5 |
| 20260901010006 | 92 | 126 | 4.0 | 9.0 | 0.00 | 0.00 | 0.00 | 52 | 1012.4 |
| 20260901005505 | 93 | 125 | 4.0 | 9.0 | 0.00 | 0.00 | 0.00 | 52 | 1012.3 |
| 20260901005005 | 93 | 122 | 4.0 | 9.0 | 0.00 | 0.00 | 0.00 | 52 | 1012.3 |
| 20260901004506 | 93 | 114 | 5.0 | 10.0 | 0.00 | 0.00 | 0.00 | 51 | 1012.3 |
| 20260901004005 | 93 | 123 | 6.0 | 12.0 | 0.00 | 0.00 | 0.00 | 51 | 1012.2 |
| 20260901003505 | 94 | 129 | 6.0 | 12.0 | 0.00 | 0.00 | 0.00 | 50 | 1012.2 |
| 20260901003005 | 94 | 125 | 5.0 | 14.0 | 0.00 | 0.00 | 0.00 | 50 | 1012.2 |
| 20260901002505 | 94 | 119 | 5.0 | 14.0 | 0.00 | 0.00 | 0.00 | 49 | 1012.1 |
| 20260901002026 | 94 | 114 | 5.0 | 11.0 | 0.00 | 0.00 | 0.00 | 48 | 1012.2 |
| 20260901001505 | 95 | 106 | 6.0 | 15.0 | 0.00 | 0.00 | 0.00 | 48 | 1012.1 |
| 20260901001005 | 95 | 101 | 7.0 | 15.0 | 0.00 | 0.00 | 0.00 | 48 | 1011.9 |
| 20260901000505 | 96 | 100 | 6.0 | 12.0 | 0.00 | 0.00 | 0.00 | 46 | 1011.9 |
| 20260901000005 | 97 | 100 | 4.0 | 10.0 | 0.00 | 0.00 | 0.00 | 42 | 1011.9 |
| 20260831235505 | 97 | 96 | 3.0 | 6.0 | 0.00 | 0.00 | 0.00 | 38 | 1011.6 |
| 20260831235006 | 98 | 92 | 3.0 | 7.0 | 0.00 | 0.00 | 0.00 | 37 | 1011.6 |
| 20260831234505 | 98 | 112 | 3.0 | 7.0 | 0.00 | 0.00 | 0.00 | 36 | 1011.6 |
| 20260831234026 | 98 | 124 | 4.0 | 9.0 | 0.00 | 0.00 | 0.00 | 37 | 1011.6 |
| 20260831233505 | 98 | 93 | 6.0 | 11.0 | 0.00 | 0.00 | 0.00 | 37 | 1011.6 |
| 20260831233005 | 98 | 79 | 7.0 | 13.0 | 0.00 | 0.00 | 0.00 | 37 | 1011.6 |
| 20260831232505 | 98 | 75 | 5.0 | 13.0 | 0.00 | 0.00 | 0.00 | 37 | 1011.7 |
| 20260831232026 | 98 | 74 | 3.0 | 9.0 | 0.00 | 0.00 | 0.00 | 37 | 1011.6 |
| 20260831231505 | 98 | 83 | 4.0 | 8.0 | 0.00 | 0.00 | 0.00 | 39 | 1011.6 |
| 20260831231006 | 98 | 83 | 5.0 | 8.0 | 0.00 | 0.00 | 0.00 | 38 | 1011.7 |
| 20260831230505 | 98 | 84 | 6.0 | 12.0 | 0.00 | 0.00 | 0.00 | 38 | 1011.8 |
| 20260831230005 | 98 | 82 | 7.0 | 12.0 | 0.00 | 0.00 | 0.00 | 38 | 1011.8 |
| 20260831225527 | 99 | 72 | 6.0 | 14.0 | 0.00 | 0.00 | 0.00 | 38 | 1011.8 |
| 20260831225005 | 99 | 65 | 5.0 | 14.0 | 0.00 | 0.00 | 0.00 | 38 | 1011.8 |
| 20260831224505 | 99 | 72 | 4.0 | 10.0 | 0.00 | 0.00 | 0.00 | 38 | 1011.8 |
| 20260831224026 | 98 | 75 | 4.0 | 10.0 | 0.00 | 0.00 | 0.00 | 39 | 1011.9 |
| 20260831223505 | 98 | 80 | 4.0 | 10.0 | 0.00 | 0.00 | 0.00 | 39 | 1011.9 |
| 20260831223005 | 98 | 82 | 6.0 | 11.0 | 0.00 | 0.00 | 0.00 | 39 | 1011.9 |
| 20260831222505 | 98 | 89 | 5.0 | 11.0 | 0.00 | 0.00 | 0.00 | 37 | 1012.0 |
| 20260831222005 | 100 | 93 | 4.0 | 13.0 | 0.00 | 0.00 | 0.00 | 38 | 1012.1 |
| 20260831221505 | 99 | 84 | 5.0 | 13.0 | 0.00 | 0.00 | 0.00 | 38 | 1012.1 |
| 20260831221004 | 99 | 83 | 3.0 | 8.0 | 0.00 | 0.00 | 0.00 | 39 | 1012.1 |
| 20260831220505 | 98 | 133 | 2.0 | 5.0 | 0.00 | 0.00 | 0.00 | 39 | 1012.1 |
| 20260831220005 | 98 | 145 | 3.0 | 6.0 | 0.00 | 0.00 | 0.00 | 40 | 1012.1 |
| 20260831215505 | 98 | 144 | 4.0 | 9.0 | 0.00 | 0.00 | 0.00 | 39 | 1012.2 |
| 20260831215005 | 99 | 128 | 4.0 | 9.0 | 0.00 | 0.00 | 0.00 | 40 | 1012.4 |
| 20260831214505 | 100 | 91 | 3.0 | 8.0 | 0.00 | 0.00 | 0.00 | 39 | 1012.4 |
| 20260831214005 | 99 | 64 | 4.0 | 9.0 | 0.00 | 0.00 | 0.00 | 40 | 1012.5 |
| 20260831213505 | 98 | 72 | 4.0 | 9.0 | 0.00 | 0.00 | 0.00 | 40 | 1012.4 |
| 20260831213005 | 98 | 84 | 4.0 | 8.0 | 0.00 | 0.00 | 0.00 | 40 | 1012.5 |
| 20260831212505 | 98 | 108 | 4.0 | 8.0 | 0.00 | 0.00 | 0.00 | 40 | 1012.7 |
| 20260831212006 | 100 | 113 | 5.0 | 13.0 | 0.00 | 0.00 | 0.00 | 39 | 1012.7 |
| 20260831211504 | 100 | 131 | 6.0 | 13.0 | 0.00 | 0.00 | 0.00 | 38 | 1012.7 |
| 20260831211005 | 100 | 175 | 6.0 | 13.0 | 0.00 | 0.00 | 0.00 | 39 | 1012.7 |
| 20260831210526 | 99 | 178 | 5.0 | 10.0 | 0.00 | 0.00 | 0.00 | 39 | 1012.8 |
| 20260831210005 | 99 | 164 | 4.0 | 10.0 | 0.00 | 0.00 | 0.00 | 39 | 1013.0 |
| 20260831205505 | 99 | 92 | 3.0 | 8.0 | 0.00 | 0.00 | 0.00 | 40 | 1013.2 |
| 20260831205005 | 98 | 76 | 3.0 | 8.0 | 0.00 | 0.00 | 0.00 | 41 | 1013.2 |
| 20260831204505 | 98 | 114 | 4.0 | 10.0 | 0.00 | 0.00 | 0.00 | 40 | 1013.2 |
| 20260831204005 | 98 | 120 | 5.0 | 10.0 | 0.00 | 0.00 | 0.00 | 41 | 1013.5 |
| 20260831203506 | 98 | 95 | 5.0 | 10.0 | 0.00 | 0.00 | 0.00 | 41 | 1013.5 |
| 20260831203005 | 99 | 96 | 6.0 | 13.0 | 0.00 | 0.00 | 0.00 | 41 | 1013.6 |
| 20260831202505 | 98 | 138 | 5.0 | 13.0 | 0.00 | 0.00 | 0.00 | 43 | 1013.8 |
| 20260831202005 | 98 | 169 | 5.0 | 9.0 | 0.00 | 0.00 | 0.00 | 43 | 1013.9 |
| 20260831201504 | 97 | 152 | 4.0 | 9.0 | 0.00 | 0.00 | 0.00 | 43 | 1013.9 |
| 20260831201005 | 96 | 101 | 4.0 | 10.0 | 0.00 | 0.00 | 0.00 | 44 | 1014.1 |
| 20260831200506 | 97 | 83 | 4.0 | 10.0 | 0.00 | 0.00 | 0.00 | 44 | 1014.2 |
| 20260831200006 | 98 | 104 | 3.0 | 8.0 | 0.00 | 0.00 | 0.00 | 43 | 1014.3 |
| 20260831195505 | 98 | 106 | 4.0 | 11.0 | 0.00 | 0.00 | 0.00 | 43 | 1014.3 |
| 20260831195027 | 99 | 103 | 5.0 | 13.0 | 0.00 | 0.00 | 0.00 | 43 | 1014.4 |
| 20260831194505 | 98 | 131 | 6.0 | 13.0 | 0.00 | 0.00 | 0.00 | 44 | 1014.4 |
| 20260831194006 | 98 | 129 | 5.0 | 11.0 | 0.00 | 0.00 | 0.00 | 44 | 1014.5 |
| 20260831193526 | 98 | 89 | 5.0 | 11.0 | 0.00 | 0.00 | 0.00 | 43 | 1014.5 |
| 20260831193005 | 98 | 98 | 5.0 | 11.0 | 0.00 | 0.00 | 0.00 | 43 | 1014.5 |
| 20260831192526 | 97 | 163 | 3.0 | 9.0 | 0.00 | 0.00 | 0.00 | 44 | 1014.7 |
| 20260831192004 | 97 | 124 | 3.0 | 9.0 | 0.00 | 0.00 | 0.00 | 44 | 1014.7 |
| 20260831191526 | 96 | 88 | 3.0 | 8.0 | 0.00 | 0.00 | 0.00 | 45 | 1014.9 |
| 20260831191005 | 96 | 167 | 3.0 | 8.0 | 0.00 | 0.00 | 0.00 | 45 | 1015.0 |
| 20260831190505 | 97 | 187 | 3.0 | 10.0 | 0.00 | 0.00 | 0.00 | 45 | 1015.0 |
| 20260831190005 | 97 | 174 | 3.0 | 10.0 | 0.00 | 0.00 | 0.00 | 43 | 1015.1 |
| 20260831185505 | 96 | 179 | 5.0 | 8.0 | 0.00 | 0.00 | 0.00 | 45 | 1015.1 |
| 20260831185005 | 96 | 175 | 5.0 | 11.0 | 0.00 | 0.00 | 0.00 | 46 | 1015.2 |
| 20260831184505 | 97 | 138 | 4.0 | 11.0 | 0.00 | 0.00 | 0.00 | 44 | 1015.2 |
| 20260831184005 | 96 | 100 | 3.0 | 11.0 | 0.00 | 0.00 | 0.00 | 47 | 1015.2 |
| 20260831183526 | 96 | 146 | 4.0 | 8.0 | 0.00 | 0.00 | 0.00 | 47 | 1015.2 |
| 20260831183006 | 96 | 135 | 4.0 | 8.0 | 0.00 | 0.00 | 0.00 | 48 | 1015.3 |
| 20260831182505 | 95 | 112 | 5.0 | 13.0 | 0.00 | 0.00 | 0.00 | 48 | 1015.3 |
| 20260831182005 | 94 | 108 | 4.0 | 13.0 | 0.00 | 0.00 | 0.00 | 48 | 1015.3 |
| 20260831181505 | 94 | 115 | 3.0 | 11.0 | 0.00 | 0.00 | 0.00 | 47 | 1015.5 |
| 20260831181005 | 94 | 122 | 4.0 | 11.0 | 0.00 | 0.00 | 0.00 | 49 | 1015.4 |
| 20260831180505 | 95 | 134 | 4.0 | 10.0 | 0.00 | 0.00 | 0.00 | 50 | 1015.5 |
| 20260831180005 | 94 | 106 | 5.0 | 10.0 | 0.00 | 0.00 | 0.00 | 50 | 1015.7 |
| 20260831175506 | 94 | 92 | 4.0 | 10.0 | 0.00 | 0.00 | 0.00 | 50 | 1015.8 |
| 20260831175026 | 94 | 87 | 4.0 | 11.0 | 0.00 | 0.00 | 0.00 | 50 | 1015.8 |
| 20260831174505 | 93 | 82 | 5.0 | 11.0 | 0.00 | 0.00 | 0.00 | 54 | 1015.9 |
| 20260831174005 | 93 | 85 | 6.0 | 13.0 | 0.00 | 0.00 | 0.00 | 53 | 1016.0 |
| 20260831173504 | 94 | 91 | 5.0 | 13.0 | 0.00 | 0.00 | 0.00 | 51 | 1016.2 |
| 20260831173005 | 93 | 100 | 3.0 | 8.0 | 0.00 | 0.00 | 0.00 | 53 | 1016.1 |
| 20260831172506 | 93 | 96 | 3.0 | 8.0 | 0.00 | 0.00 | 0.00 | 53 | 1016.3 |
| 20260831172005 | 94 | 99 | 3.0 | 8.0 | 0.00 | 0.00 | 0.00 | 54 | 1016.2 |
| 20260831171505 | 93 | 132 | 4.0 | 9.0 | 0.00 | 0.00 | 0.00 | 53 | 1016.2 |
| 20260831171005 | 92 | 126 | 4.0 | 9.0 | 0.00 | 0.00 | 0.00 | 54 | 1016.1 |
| 20260831170505 | 91 | 125 | 2.0 | 8.0 | 0.00 | 0.00 | 0.00 | 60 | 1016.2 |
| 20260831170005 | 90 | 187 | 3.0 | 8.0 | 0.00 | 0.00 | 0.00 | 60 | 1016.3 |
| 20260831165505 | 91 | 141 | 4.0 | 10.0 | 0.00 | 0.00 | 0.00 | 58 | 1016.4 |
| 20260831165026 | 91 | 132 | 4.0 | 10.0 | 0.00 | 0.00 | 0.00 | 58 | 1016.4 |
| 20260831164505 | 93 | 147 | 4.0 | 10.0 | 0.00 | 0.00 | 0.00 | 57 | 1016.5 |
| 20260831164005 | 92 | 126 | 4.0 | 11.0 | 0.00 | 0.00 | 0.00 | 58 | 1016.4 |
| 20260831163505 | 92 | 121 | 4.0 | 11.0 | 0.00 | 0.00 | 0.00 | 59 | 1016.5 |
| 20260831163026 | 92 | 127 | 3.0 | 10.0 | 0.00 | 0.00 | 0.00 | 59 | 1016.6 |
| 20260831162505 | 91 | 118 | 3.0 | 10.0 | 0.00 | 0.00 | 0.00 | 60 | 1016.5 |
| 20260831162006 | 91 | 135 | 3.0 | 7.0 | 0.00 | 0.00 | 0.00 | 61 | 1016.4 |
| 20260831161505 | 90 | 174 | 3.0 | 7.0 | 0.00 | 0.00 | 0.00 | 63 | 1016.5 |
| 20260831161004 | 90 | 193 | 4.0 | 9.0 | 0.00 | 0.00 | 0.00 | 64 | 1016.6 |
| 20260831160505 | 89 | 196 | 4.0 | 9.0 | 0.00 | 0.00 | 0.00 | 64 | 1016.6 |
| 20260831160004 | 89 | 183 | 4.0 | 11.0 | 0.00 | 0.00 | 0.00 | 64 | 1016.7 |
| 20260831155526 | 89 | 168 | 4.0 | 11.0 | 0.00 | 0.00 | 0.00 | 65 | 1016.5 |
| 20260831155005 | 89 | 175 | 4.0 | 10.0 | 0.00 | 0.00 | 0.00 | 66 | 1016.6 |
| 20260831154505 | 88 | 177 | 4.0 | 8.0 | 0.00 | 0.00 | 0.00 | 67 | 1016.6 |
| 20260831154005 | 88 | 160 | 4.0 | 8.0 | 0.00 | 0.00 | 0.00 | 67 | 1016.6 |
| 20260831153505 | 87 | 164 | 4.0 | 8.0 | 0.00 | 0.00 | 0.00 | 70 | 1016.6 |
| 20260831153005 | 86 | 176 | 5.0 | 9.0 | 0.00 | 0.00 | 0.00 | 71 | 1016.6 |
| 20260831152504 | 86 | 189 | 5.0 | 10.0 | 0.00 | 0.00 | 0.00 | 73 | 1016.5 |
| 20260831152005 | 86 | 188 | 4.0 | 10.0 | 0.00 | 0.00 | 0.00 | 75 | 1016.5 |
| 20260831151505 | 84 | 170 | 4.0 | 9.0 | 0.00 | 0.00 | 0.00 | 76 | 1016.5 |
| 20260831151026 | 84 | 175 | 4.0 | 9.0 | 0.00 | 0.00 | 0.00 | 76 | 1016.5 |
| 20260831150505 | 84 | 188 | 5.0 | 9.0 | 0.00 | 0.00 | 0.00 | 77 | 1016.5 |
| 20260831150005 | 85 | 197 | 4.0 | 9.0 | 0.00 | 0.00 | 0.00 | 77 | 1016.3 |
| 20260831145505 | 84 | 199 | 4.0 | 9.0 | 0.00 | 0.00 | 0.00 | 79 | 1016.3 |
| 20260831145005 | 84 | 184 | 4.0 | 10.0 | 0.00 | 0.00 | 0.00 | 80 | 1016.3 |
| 20260831144505 | 84 | 172 | 3.0 | 10.0 | 0.00 | 0.00 | 0.00 | 80 | 1016.2 |
| 20260831144005 | 83 | 163 | 2.0 | 6.0 | 0.00 | 0.00 | 0.00 | 82 | 1016.2 |
| 20260831143505 | 83 | 157 | 2.0 | 7.0 | 0.00 | 0.00 | 0.00 | 83 | 1016.3 |
| 20260831143005 | 83 | 172 | 2.0 | 7.0 | 0.00 | 0.00 | 0.00 | 84 | 1016.2 |
| 20260831142504 | 82 | 152 | 2.0 | 7.0 | 0.00 | 0.00 | 0.00 | 85 | 1016.1 |
| 20260831142004 | 82 | 123 | 2.0 | 7.0 | 0.00 | 0.00 | 0.00 | 85 | 1016.2 |
| 20260831141505 | 82 | 113 | 0.0 | 2.0 | 0.00 | 0.00 | 0.00 | 87 | 1016.2 |
| 20260831141005 | 81 | 114 | 0.0 | 2.0 | 0.00 | 0.00 | 0.00 | 88 | 1016.2 |
| 20260831140526 | 81 | 105 | 0.0 | 2.0 | 0.00 | 0.00 | 0.00 | 89 | 1016.2 |
| 20260831140005 | 80 | 79 | 0.0 | 2.0 | 0.00 | 0.00 | 0.00 | 91 | 1016.1 |
| 20260831135505 | 79 | 79 | 0.0 | 2.0 | 0.00 | 0.00 | 0.00 | 92 | 1016.0 |
| 20260831135005 | 79 | 79 | 1.0 | 2.0 | 0.00 | 0.00 | 0.00 | 93 | 1016.0 |
| 20260831134504 | 78 | 79 | 1.0 | 2.0 | 0.00 | 0.00 | 0.00 | 94 | 1016.0 |
| 20260831134004 | 78 | 79 | 1.0 | 3.0 | 0.00 | 0.00 | 0.00 | 94 | 1016.0 |
| 20260831133505 | 77 | 80 | 1.0 | 3.0 | 0.00 | 0.00 | 0.00 | 94 | 1016.1 |
| 20260831133005 | 77 | 80 | 1.0 | 3.0 | 0.00 | 0.00 | 0.00 | 94 | 1016.0 |
| 20260831132504 | 76 | 80 | 0.0 | 2.0 | 0.00 | 0.00 | 0.00 | 94 | 1016.0 |
| 20260831132005 | 76 | 80 | 1.0 | 4.0 | 0.00 | 0.00 | 0.00 | 94 | 1015.9 |
| 20260831131505 | 76 | 79 | 2.0 | 4.0 | 0.00 | 0.00 | 0.00 | 94 | 1015.9 |
| 20260831131025 | 76 | 78 | 1.0 | 4.0 | 0.00 | 0.00 | 0.00 | 93 | 1015.9 |
| 20260831130505 | 76 | 0 | 0.0 | 0.0 | 0.00 | 0.00 | 0.00 | 93 | 1015.8 |
| 20260831130005 | 76 | 0 | 0.0 | 0.0 | 0.00 | 0.00 | 0.00 | 93 | 1015.8 |
| 20260831125504 | 76 | 0 | 0.0 | 0.0 | 0.00 | 0.00 | 0.00 | 93 | 1015.7 |
| 20260831125005 | 76 | 0 | 0.0 | 0.0 | 0.00 | 0.00 | 0.00 | 93 | 1015.8 |
| 20260831124504 | 75 | 0 | 0.0 | 0.0 | 0.00 | 0.00 | 0.00 | 93 | 1015.6 |
| 20260831124005 | 75 | 0 | 0.0 | 0.0 | 0.00 | 0.00 | 0.00 | 93 | 1015.7 |
| 20260831123505 | 75 | 0 | 0.0 | 0.0 | 0.00 | 0.00 | 0.00 | 93 | 1015.5 |
| 20260831123005 | 75 | 0 | 0.0 | 0.0 | 0.00 | 0.00 | 0.00 | 93 | 1015.5 |
| 20260831122504 | 75 | 0 | 0.0 | 0.0 | 0.00 | 0.00 | 0.00 | 93 | 1015.6 |
| 20260831122025 | 75 | 0 | 0.0 | 0.0 | 0.00 | 0.00 | 0.00 | 92 | 1015.4 |
| 20260831121505 | 74 | 0 | 0.0 | 0.0 | 0.00 | 0.00 | 0.00 | 92 | 1015.3 |
| 20260831121026 | 74 | 0 | 0.0 | 0.0 | 0.00 | 0.00 | 0.00 | 92 | 1015.4 |
| 20260831120504 | 74 | 0 | 0.0 | 0.0 | 0.00 | 0.00 | 0.00 | 92 | 1015.5 |
| 20260831120005 | 74 | 0 | 0.0 | 0.0 | 0.00 | 0.00 | 0.00 | 91 | 1015.5 |
| 20260831115504 | 75 | 0 | 0.0 | 0.0 | 0.00 | 0.00 | 0.00 | 92 | 1015.4 |
| 20260831115004 | 75 | 0 | 0.0 | 0.0 | 0.00 | 0.00 | 0.00 | 92 | 1015.4 |
| 20260831114526 | 76 | 0 | 0.0 | 0.0 | 0.00 | 0.00 | 0.00 | 92 | 1015.4 |
| 20260831114005 | 76 | 78 | 0.0 | 1.0 | 0.00 | 0.00 | 0.00 | 92 | 1015.3 |
| 20260831113526 | 76 | 78 | 0.0 | 1.0 | 0.00 | 0.00 | 0.00 | 93 | 1015.4 |
| 20260831113004 | 75 | 0 | 0.0 | 0.0 | 0.00 | 0.00 | 0.00 | 93 | 1015.3 |
| 20260831112505 | 75 | 0 | 0.0 | 0.0 | 0.00 | 0.00 | 0.00 | 92 | 1015.3 |
| 20260831112005 | 75 | 0 | 0.0 | 0.0 | 0.00 | 0.00 | 0.00 | 91 | 1015.3 |
| 20260831111504 | 75 | 0 | 0.0 | 0.0 | 0.00 | 0.00 | 0.00 | 92 | 1015.2 |
| 20260831111004 | 75 | 0 | 0.0 | 0.0 | 0.00 | 0.00 | 0.00 | 92 | 1015.3 |
| 20260831110504 | 75 | 0 | 0.0 | 0.0 | 0.00 | 0.00 | 0.00 | 92 | 1015.1 |
| 20260831110005 | 75 | 0 | 0.0 | 0.0 | 0.00 | 0.00 | 0.00 | 91 | 1015.3 |
| 20260831105505 | 75 | 0 | 0.0 | 0.0 | 0.00 | 0.00 | 0.00 | 90 | 1015.2 |
| 20260831105004 | 75 | 0 | 0.0 | 0.0 | 0.00 | 0.00 | 0.00 | 90 | 1015.1 |
| 20260831104505 | 75 | 0 | 0.0 | 0.0 | 0.00 | 0.00 | 0.00 | 90 | 1015.1 |
| 20260831104004 | 76 | 0 | 0.0 | 0.0 | 0.00 | 0.00 | 0.00 | 90 | 1015.1 |
| 20260831103504 | 76 | 0 | 0.0 | 0.0 | 0.00 | 0.00 | 0.00 | 91 | 1015.1 |
| 20260831103005 | 76 | 78 | 0.0 | 1.0 | 0.00 | 0.00 | 0.00 | 91 | 1015.2 |
| 20260831102505 | 76 | 78 | 0.0 | 1.0 | 0.00 | 0.00 | 0.00 | 91 | 1015.2 |
| 20260831102026 | 76 | 0 | 0.0 | 0.0 | 0.00 | 0.00 | 0.00 | 91 | 1015.3 |
| 20260831101504 | 76 | 0 | 0.0 | 0.0 | 0.00 | 0.00 | 0.00 | 91 | 1015.3 |
| 20260831101025 | 77 | 0 | 0.0 | 0.0 | 0.00 | 0.00 | 0.00 | 91 | 1015.2 |
| 20260831100505 | 77 | 0 | 0.0 | 0.0 | 0.00 | 0.00 | 0.00 | 92 | 1015.2 |
| 20260831100005 | 77 | 0 | 0.0 | 0.0 | 0.00 | 0.00 | 0.00 | 91 | 1015.3 |
| 20260831095504 | 77 | 0 | 0.0 | 0.0 | 0.00 | 0.00 | 0.00 | 91 | 1015.3 |
| 20260831095004 | 77 | 0 | 0.0 | 0.0 | 0.00 | 0.00 | 0.00 | 91 | 1015.3 |
| 20260831094505 | 77 | 0 | 0.0 | 0.0 | 0.00 | 0.00 | 0.00 | 91 | 1015.3 |
| 20260831094005 | 77 | 0 | 0.0 | 0.0 | 0.00 | 0.00 | 0.00 | 91 | 1015.2 |
| 20260831093504 | 77 | 0 | 0.0 | 0.0 | 0.00 | 0.00 | 0.00 | 91 | 1015.2 |
| 20260831093005 | 77 | 0 | 0.0 | 0.0 | 0.00 | 0.00 | 0.00 | 91 | 1015.2 |
| 20260831092504 | 77 | 0 | 0.0 | 0.0 | 0.00 | 0.00 | 0.00 | 91 | 1015.2 |
| 20260831092026 | 77 | 0 | 0.0 | 0.0 | 0.00 | 0.00 | 0.00 | 91 | 1015.2 |
| 20260831091526 | 77 | 0 | 0.0 | 0.0 | 0.00 | 0.00 | 0.00 | 91 | 1015.2 |
| 20260831091005 | 77 | 0 | 0.0 | 0.0 | 0.00 | 0.00 | 0.00 | 90 | 1015.2 |
| 20260831090504 | 77 | 0 | 0.0 | 0.0 | 0.00 | 0.00 | 0.00 | 90 | 1015.2 |
| 20260831090004 | 77 | 0 | 0.0 | 0.0 | 0.00 | 0.00 | 0.00 | 90 | 1015.2 |
| 20260831085505 | 77 | 0 | 0.0 | 0.0 | 0.00 | 0.00 | 0.00 | 90 | 1015.3 |
| 20260831085004 | 77 | 0 | 0.0 | 0.0 | 0.00 | 0.00 | 0.00 | 90 | 1015.2 |
| 20260831084505 | 77 | 0 | 0.0 | 0.0 | 0.00 | 0.00 | 0.00 | 90 | 1015.3 |
| 20260831084004 | 77 | 0 | 0.0 | 0.0 | 0.00 | 0.00 | 0.00 | 89 | 1015.3 |
| 20260831083526 | 77 | 0 | 0.0 | 0.0 | 0.00 | 0.00 | 0.00 | 89 | 1015.3 |
| 20260831083004 | 77 | 0 | 0.0 | 0.0 | 0.00 | 0.00 | 0.00 | 89 | 1015.2 |
| 20260831082505 | 77 | 0 | 0.0 | 0.0 | 0.00 | 0.00 | 0.00 | 89 | 1015.3 |
| 20260831082026 | 77 | 0 | 0.0 | 0.0 | 0.00 | 0.00 | 0.00 | 88 | 1015.4 |
| 20260831081504 | 77 | 0 | 0.0 | 0.0 | 0.00 | 0.00 | 0.00 | 88 | 1015.4 |
| 20260831081004 | 78 | 0 | 0.0 | 0.0 | 0.00 | 0.00 | 0.00 | 88 | 1015.4 |
| 20260831080504 | 78 | 0 | 0.0 | 0.0 | 0.00 | 0.00 | 0.00 | 88 | 1015.4 |
| 20260831080004 | 78 | 0 | 0.0 | 0.0 | 0.00 | 0.00 | 0.00 | 88 | 1015.4 |
| 20260831075504 | 78 | 0 | 0.0 | 0.0 | 0.00 | 0.00 | 0.00 | 87 | 1015.4 |
| 20260831075004 | 78 | 0 | 0.0 | 0.0 | 0.00 | 0.00 | 0.00 | 87 | 1015.4 |
| 20260831074504 | 78 | 0 | 0.0 | 0.0 | 0.00 | 0.00 | 0.00 | 87 | 1015.3 |
| 20260831074005 | 78 | 0 | 0.0 | 0.0 | 0.00 | 0.00 | 0.00 | 87 | 1015.3 |
| 20260831073504 | 78 | 78 | 0.0 | 1.0 | 0.00 | 0.00 | 0.00 | 87 | 1015.4 |
| 20260831073025 | 78 | 78 | 0.0 | 1.0 | 0.00 | 0.00 | 0.00 | 87 | 1015.3 |
| 20260831072504 | 78 | 78 | 0.0 | 1.0 | 0.00 | 0.00 | 0.00 | 86 | 1015.3 |
| 20260831072004 | 79 | 78 | 0.0 | 1.0 | 0.00 | 0.00 | 0.00 | 86 | 1015.4 |
| 20260831071505 | 79 | 79 | 0.0 | 2.0 | 0.00 | 0.00 | 0.00 | 86 | 1015.4 |
| 20260831071004 | 79 | 111 | 0.0 | 2.0 | 0.00 | 0.00 | 0.00 | 86 | 1015.4 |
| 20260831070504 | 79 | 163 | 0.0 | 2.0 | 0.00 | 0.00 | 0.00 | 86 | 1015.4 |
| 20260831070004 | 79 | 173 | 0.0 | 2.0 | 0.00 | 0.00 | 0.00 | 85 | 1015.5 |
| 20260831065504 | 79 | 169 | 1.0 | 4.0 | 0.00 | 0.00 | 0.00 | 85 | 1015.4 |
| 20260831065004 | 79 | 169 | 1.0 | 4.0 | 0.00 | 0.00 | 0.00 | 85 | 1015.4 |
| 20260831064505 | 79 | 167 | 1.0 | 3.0 | 0.00 | 0.00 | 0.00 | 85 | 1015.4 |
| 20260831064004 | 80 | 186 | 2.0 | 5.0 | 0.00 | 0.00 | 0.00 | 84 | 1015.4 |
| 20260831063504 | 80 | 185 | 2.0 | 5.0 | 0.00 | 0.00 | 0.00 | 84 | 1015.4 |
| 20260831063004 | 80 | 170 | 2.0 | 6.0 | 0.00 | 0.00 | 0.00 | 84 | 1015.4 |
| 20260831062504 | 80 | 166 | 2.0 | 6.0 | 0.00 | 0.00 | 0.00 | 83 | 1015.3 |
| 20260831062004 | 80 | 161 | 3.0 | 7.0 | 0.00 | 0.00 | 0.00 | 83 | 1015.4 |
| 20260831061506 | 80 | 162 | 4.0 | 8.0 | 0.00 | 0.00 | 0.00 | 83 | 1015.4 |
| 20260831061004 | 80 | 165 | 3.0 | 8.0 | 0.00 | 0.00 | 0.00 | 82 | 1015.3 |
| 20260831060504 | 80 | 167 | 3.0 | 7.0 | 0.00 | 0.00 | 0.00 | 82 | 1015.2 |
| 20260831060004 | 80 | 162 | 4.0 | 10.0 | 0.00 | 0.00 | 0.00 | 81 | 1015.2 |
| 20260831055504 | 81 | 159 | 4.0 | 10.0 | 0.00 | 0.00 | 0.00 | 81 | 1015.3 |
| 20260831055004 | 81 | 159 | 4.0 | 8.0 | 0.00 | 0.00 | 0.00 | 80 | 1015.2 |
| 20260831054504 | 81 | 157 | 4.0 | 9.0 | 0.00 | 0.00 | 0.00 | 80 | 1015.2 |
| 20260831054004 | 81 | 156 | 5.0 | 10.0 | 0.00 | 0.00 | 0.00 | 79 | 1015.2 |
| 20260831053505 | 81 | 156 | 5.0 | 10.0 | 0.00 | 0.00 | 0.00 | 79 | 1015.1 |
| 20260831053025 | 81 | 157 | 5.0 | 8.0 | 0.00 | 0.00 | 0.00 | 78 | 1015.2 |
| 20260831052525 | 81 | 157 | 5.0 | 9.0 | 0.00 | 0.00 | 0.00 | 78 | 1015.2 |
| 20260831052025 | 81 | 157 | 5.0 | 10.0 | 0.00 | 0.00 | 0.00 | 77 | 1015.2 |
| 20260831051504 | 82 | 156 | 5.0 | 10.0 | 0.00 | 0.00 | 0.00 | 77 | 1015.1 |
| 20260831051005 | 82 | 155 | 4.0 | 7.0 | 0.00 | 0.00 | 0.00 | 76 | 1015.1 |
| 20260831050504 | 82 | 153 | 4.0 | 8.0 | 0.00 | 0.00 | 0.00 | 75 | 1015.0 |
| 20260831050005 | 82 | 151 | 5.0 | 8.0 | 0.00 | 0.00 | 0.00 | 75 | 1015.1 |
| 20260831045504 | 82 | 150 | 4.0 | 8.0 | 0.00 | 0.00 | 0.00 | 74 | 1015.0 |
| 20260831045004 | 82 | 151 | 4.0 | 8.0 | 0.00 | 0.00 | 0.00 | 73 | 1015.0 |
| 20260831044504 | 83 | 152 | 4.0 | 8.0 | 0.00 | 0.00 | 0.00 | 73 | 1015.0 |